Regional Weather Roundup
Issued by NWS

Home | Current Version | Previous Version | Graphics & Text | Print | Product List | Glossary On
Versions: 1 2 3 4 5 6 7 8 9 10 11 12 13 14 15 16 17 18 19 20 21 22 23 24 25 26 27 28 29 30 31 32 33 34 35 36 37 38 39 40 41 42 43 44 45 46 47 48 49 50
000
ASUS43 KIND 200409
RWRIN

WEATHER ROUNDUP FOR INDIANA
NATIONAL WEATHER SERVICE INDIANAPOLIS IN
1200 AM EDT SUN AUG 20 2017

NOTE: "FAIR" INDICATES FEW OR NO CLOUDS BELOW 12,000 FEET WITH NO
SIGNIFICANT WEATHER AND/OR OBSTRUCTIONS TO VISIBILITY.

* - STATION DOES NOT REPORT WEATHER SUCH AS PRECIPITATION OR FOG.

+ - STATION NOT QUALITY CONTROLLED BY THE NATIONAL WEATHER SERVICE.
    USE DATA WITH CAUTION...ESPECIALLY DEWPOINT AND RELATIVE
    HUMIDITY OBSERVATIONS.

INZ001>003-010>013-019-020-200500-
NORTHWEST INDIANA

CITY           SKY/WX    TMP DP  RH WIND       PRES   REMARKS
GARY /AIRPORT/ CLEAR     60  56  87 CALM      29.99S
KNOX *+        CLEAR     55  55 100 CALM      30.00R
LA PORTE +     CLEAR     60  56  88 CALM      30.01S
MICHIGAN CITY+ CLEAR     59  59 100 CALM      30.01R
MONTICELLO +   CLEAR     65  64  94 CALM      29.99S
RENSSELAER +   CLEAR     66  55  68 E3        30.00R
VALPARAISO     CLEAR     63  59  87 NE3       30.00R

$$

LMZ046-743>745-200500-
SOUTHERN LAKE MICHIGAN

STATION/POSITION TIME  TEMP    WIND        PRES    WAVE
                       AIR SEA DIR/SP/G            HT
                 (UTC) (F)     (DEG/KT/KT) (MB)    (FT)
BURNS HARBOR     0340   73     110/  5/  6 1015.9R
MICHIGAN CITY    0340   68     110/  4/  4   N/A
5NW MICH CITY    0400   72 75  120/  6/  8   N/A     1

$$

INZ004-005-014>016-021>024-200500-
NORTH CENTRAL INDIANA

CITY           SKY/WX    TMP DP  RH WIND       PRES   REMARKS
GOSHEN         CLEAR     63  59  87 CALM      30.02R
LOGANSPORT +   CLEAR     63  61  94 SE3       30.02R
PERU/GRISSOM   CLEAR     66  62  84 SE3       30.00R
ROCHESTER +    CLEAR     64  63  94 CALM      30.02R
SOUTH BEND     CLEAR     60  59  96 CALM      30.02R
WARSAW +       CLEAR     63  63 100 CALM      30.01S

$$

INZ006>009-017-018-025>027-200500-
NORTHEAST INDIANA

CITY           SKY/WX    TMP DP  RH WIND       PRES   REMARKS
AUBURN +       CLEAR     63  61  94 CALM      30.02S
FORT WAYNE     CLEAR     64  60  87 CALM      30.01S
HUNTINGTON +   CLEAR     64  62  96 CALM      30.01S

$$

INZ028-029-035-036-043>045-051>053-200500-
WEST CENTRAL INDIANA

CITY           SKY/WX    TMP DP  RH WIND       PRES   REMARKS
GREENCASTLE +  CLEAR     68  63  83 NE3       30.01S
LAFAYETTE      CLEAR     66  64  93 CALM      29.99R
TERRE HAUTE    CLEAR     70  66  87 CALM      29.99R

$$

INZ030>032-037>040-046>048-054>057-064-065-200500-
CENTRAL INDIANA

CITY           SKY/WX    TMP DP  RH WIND       PRES   REMARKS
CP ATTERBURY + PTCLDY    72  64  78 CALM      30.00S
FRANKFORT +    MOCLDY    68  64  85 E3        30.03S
GREENWOOD *+   PTCLDY    73  62  70 CALM      30.02R
INDIANAPOLIS   PTCLDY    75  63  66 E6        30.00R
-EAGLE CREEK   CLOUDY    75  62  64 NE5       30.00R
KOKOMO +       CLEAR     65  63  93 CALM      30.02R
MARION +       CLEAR     63  61  94 CALM      30.03R
MT COMFORT *+  MOCLDY    66  63  88 CALM      30.02R
SHELBYVILLE    CLOUDY    70  65  84 E6        30.01R
ZIONSVILLE +   CLEAR     65  62  90 CALM      30.03R

$$

INZ033-034-041-042-049-050-058-059-200500-
EAST CENTRAL INDIANA

CITY           SKY/WX    TMP DP  RH WIND       PRES   REMARKS
MUNCIE         PTCLDY    65  62  90 CALM      30.02R
RICHMOND +     CLEAR     63  61  94 E6        30.04R

$$

INZ060-061-067>069-081>083-085>088-200500-
SOUTHWEST INDIANA

CITY           SKY/WX    TMP DP  RH WIND       PRES   REMARKS
EVANSVILLE     CLEAR     72  69  90 CALM      29.99R
HUNTINGBURG +  CLEAR     69  67  93 SE5       29.99R
WASHINGTON +   CLOUDY    73  70  93 MISG      29.98R

$$

INZ062-063-066-070>080-084-089>092-200500-
SOUTH CENTRAL AND SOUTHEAST INDIANA

CITY           SKY/WX    TMP DP  RH WIND       PRES   REMARKS
BEDFORD +      CLEAR     72  68  88 CALM      29.99R
BLOOMINGTON    MOCLDY    70  66  87 CALM      30.00R
MADISON *+     CLOUDY    72  68  88 CALM      30.02S
NORTH VERNON + CLOUDY    72  68  88 CALM      30.01R
SEYMOUR +      CLOUDY    72  68  88 CALM      29.99R

$$




USA.gov is the U.S. government's official web portal to all federal, state and local government web resources and services.